This is the latest recevied weather packets stored in our database for station/object KB1WCR. If no packets are shown the sender has not sent any weather packets the latest 10 day(s).
| Time | Temp. | Humidity | Pressure | Rain* | Wind** | Luminosity | Snow |
|---|---|---|---|---|---|---|---|
| 1777727470 | 5.56° C | 96% | 1013.4 hPa | 1.78 mm | - | 66 W/m² | - |
| 1777727167 | 6.11° C | 96% | 1013.3 hPa | 3.05 mm | - | 55 W/m² | - |
| 1777726865 | 6.11° C | 95% | 1013.3 hPa | 1.27 mm | - | 55 W/m² | - |
| 1777726561 | 6.11° C | 94% | 1013.4 hPa | 0 mm | - | 54 W/m² | - |
| 1777726258 | 6.11° C | 94% | 1013.4 hPa | 0 mm | - | 66 W/m² | - |
| 1777725954 | 6.11° C | 94% | 1013.2 hPa | 0 mm | - | 63 W/m² | - |
| 1777725652 | 6.11° C | 94% | 1013 hPa | 0 mm | - | 63 W/m² | - |
| 1777725350 | 6.11° C | 94% | 1013 hPa | 0 mm | - | 58 W/m² | - |
| 1777725046 | 6.11° C | 94% | 1012.9 hPa | 0 mm | - | 72 W/m² | - |
| 1777724743 | 5.56° C | 95% | 1013.1 hPa | 0 mm | - | 81 W/m² | - |
| 1777724440 | 5.56° C | 95% | 1013 hPa | 1.78 mm | - | 41 W/m² | - |
| 1777724138 | 5.56° C | 95% | 1013.1 hPa | 1.78 mm | - | 31 W/m² | - |
| 1777723835 | 5.56° C | 96% | 1013.2 hPa | 3.05 mm | - | 29 W/m² | - |
| 1777723531 | 5.56° C | 98% | 1013.3 hPa | 1.27 mm | - | 35 W/m² | - |
| 1777723228 | 5.56° C | 98% | 1013.5 hPa | 1.78 mm | - | 39 W/m² | - |
| 1777722926 | 5.56° C | 98% | 1013.8 hPa | 3.56 mm | - | 41 W/m² | - |
| 1777722622 | 5.56° C | 98% | 1013.6 hPa | 1.78 mm | - | 40 W/m² | - |
| 1777722319 | 5.56° C | 97% | 1013.5 hPa | 0 mm | - | 32 W/m² | - |
| 1777722015 | 5.56° C | 97% | 1013.7 hPa | 0 mm | - | 43 W/m² | - |
| 1777721713 | 5.56° C | 97% | 1013.6 hPa | 0 mm | - | 25 W/m² | - |
| 1777721412 | 5.56° C | 97% | 1013.7 hPa | 0 mm | - | 20 W/m² | - |
| 1777721109 | 5.56° C | 96% | 1013.3 hPa | 0 mm | - | 14 W/m² | - |
| 1777720806 | 5.56° C | 96% | 1013.4 hPa | 0 mm | - | 24 W/m² | - |
| 1777720504 | 5° C | 97% | 1013.4 hPa | 0 mm | - | 33 W/m² | - |
| 1777720201 | 5° C | 96% | 1013.4 hPa | 0 mm | - | 23 W/m² | - |
* Rain latest hour (hover to see other rain measurements)
** Current wind speed in m/s (hover to see current wind gust speed)